Regional Weather Roundup
Issued by NWS Sioux Falls, SD

Home | Current Version | Previous Version | Graphics & Text | Print | Product List | Glossary On
Versions: 1 2 3 4 5 6 7 8 9 10 11 12 13 14 15 16 17 18 19 20 21 22 23 24 25 26 27 28 29 30 31 32 33 34 35 36 37 38 39 40 41 42 43 44 45 46 47 48 49 50
000
ASUS43 KFSD 200202
RWRFSD

WEATHER ROUNDUP FOR SE SOUTH DAKOTA/SW MINNESOTA/NW IOWA
NATIONAL WEATHER SERVICE SIOUX FALLS SD
900 PM CDT TUE AUG 19 2014

NOTE: "FAIR" INDICATES FEW OR NO CLOUDS BELOW 12,000 FEET WITH NO
SIGNIFICANT WEATHER AND OR OBSTRUCTIONS TO VISIBILITY.


SDZ038>040-050-052>070-200300-
SOUTHEAST SOUTH DAKOTA

CITY           SKY/WX    TMP DP  RH WIND       PRES   REMARKS
CHAMBERLAIN    MOCLDY    73  65  76 SE8       29.76S
HURON          PTCLDY    75  62  64 SE7       29.76R
MADISON        FAIR      70  68  94 S3        29.82R
MITCHELL       CLEAR     72  64  76 SE6       29.78R
SIOUX FALLS    PTCLDY    76  62  62 S3        29.80R
WINNER         FAIR      78  64  61 SE12      29.75S
YANKTON        PTCLDY    73  64  73 E6        29.79R
$$

MNZ071-072-080-081-089-090-097-098-200300-
SOUTHWEST MINNESOTA

CITY           SKY/WX    TMP DP  RH WIND       PRES   REMARKS
FAIRMONT       CLEAR     72  63  73 CALM      29.80R
JACKSON        CLEAR     68  64  88 CALM      29.82R
LUVERNE        CLEAR     70  64  83 SW5       29.81R
MARSHALL       CLEAR     73  64  73 CALM      29.78R
MONTEVIDEO     CLEAR     72  64  78 CALM      29.79R
PIPESTONE      CLEAR     73  64  73 CALM      29.82R
REDWOOD FALLS  CLEAR     74  65  73 NW3       29.78R
TRACY          CLEAR     73  66  80 CALM      29.80R
WINDOM         CLEAR     72  66  83 CALM      29.81R
WORTHINGTON    CLEAR     72  12  10 SW3       29.82S
$$

IAZ001>003-012>014-020>022-031-032-NEZ013-014-SDZ071-200300-
NORTHWEST IOWA

CITY           SKY/WX    TMP DP  RH WIND       PRES   REMARKS
CHEROKEE       CLEAR     69  67  92 CALM      29.82R
DENISON        CLEAR     72  70  94 E5        29.79S
ESTHERVILLE    CLEAR     69  66  90 SW6       29.80R
LE MARS        CLEAR     72  68  88 CALM      29.81R
ORANGE CITY    CLEAR     75  64  69 CALM      29.82R
SHELDON        CLEAR     68  66  94 CALM      29.81R
SIOUX CITY     PTCLDY    76  67  73 E5        29.79S
SPENCER        CLEAR     70  66  87 SW5       29.81R
STORM LAKE     CLEAR     70  68  94 SW3       29.83R
$$

ABBREVIATIONS USED IN REMARKS
   TC - TEMPERATURE IN CELSIUS
  WCI - WIND CHILL INDEX
   HX - HEAT INDEX
  VSB - VISIBILITY



USA.gov is the U.S. government's official web portal to all federal, state and local government web resources and services.